Location: General Nathan Twining Observatory
(34.5931°N, 106.8201°W)
Time: 19:34:41
(UTC-07:00)

Daily predictions for brighter satellites

Satellite Brightness Start Highest point End
(mag) Time Altitude Azimuth Time Altitude Azimuth Time Altitude Azimuth
Cosmos 2151 Rocket 4.1 18:14:19 10° SSE 18:18:30 39° E 18:22:42 10° NNE
CENTAUR R/B 3.3 18:14:09 10° NNW 18:22:13 86° WSW 18:30:38 10° SSE
Cosmos 1812 3.0 18:18:55 10° N 18:22:38 45° E 18:26:20 10° SSE
Cosmos 1745 Rocket 4.1 18:16:56 10° S 18:23:16 90° S 18:29:36 10° N
NOAA 12 4.3 18:23:06 10° SSE 18:28:13 51° ENE 18:33:23 10° N
Cosmos 1954 Rocket 4.4 18:26:58 10° S 18:31:48 41° E 18:36:39 10° NNE
METEOR-M 4.2 18:26:38 10° SSE 18:31:49 54° ENE 18:37:01 10° N
Cosmos 1386 Rocket 4.4 18:27:17 10° S 18:33:25 82° E 18:39:29 10° N
GEOS 3 Rocket 3.7 18:31:57 10° NE 18:37:10 64° ESE 18:42:24 10° SSW
SL-8 R/B 4.1 18:37:11 10° WNW 18:41:58 64° SW 18:46:44 10° SE
Cosmos 2360 Rocket 3.2 18:37:18 10° N 18:42:00 26° ENE 18:46:40 10° ESE
Cosmos 1980 Rocket 3.9 18:37:35 10° NW 18:42:45 37° WSW 18:47:56 10° S
Cosmos 1633 3.1 18:41:12 10° SSE 18:44:36 37° E 18:48:02 10° NNE
Cosmos 1602 4.2 18:41:32 10° SSE 18:45:06 36° E 18:48:40 10° NNE
Helios 1B rocket 4.0 18:44:11 14° ENE 18:45:09 15° E 18:47:34 10° SE
Cosmos 1975 Rocket 4.4 18:41:06 10° NNW 18:45:13 44° W 18:49:19 10° SSW
OAO 3 Copernicus 4.3 18:43:03 10° W 18:48:09 85° N 18:52:08 17° E
FREGAT/IRIS 2.7 18:45:13 10° SSE 18:48:13 55° ENE 18:51:16 10° N
ALOS 2.5 18:52:18 10° SSE 18:56:46 47° ENE 19:01:15 10° N
Cosmos 1833 4.1 18:55:37 10° SSW 19:01:20 80° ESE 19:07:01 10° NNE
ASTRO E2 4.1 18:59:57 10° W 19:03:32 31° SSW 19:06:24 14° SE
ATLAS 2A CENTAUR R/B 3.0 19:01:18 10° SW 19:03:37 24° SSE 19:07:24 14° ESE
Cosmos 1536 Rocket 3.5 18:59:41 10° N 19:04:11 82° E 19:08:39 10° S
NOSS 8 (F) 4.4 19:03:01 10° SSW 19:06:36 66° ESE 19:08:50 20° NE
Cosmos 1818 4.4 19:02:12 10° SW 19:07:29 52° WNW 19:12:49 10° NNE
SJ-6B 2.9 19:03:28 10° S 19:07:31 80° WSW 19:11:31 10° NNW
BREEZE-M DEB (TANK) 3.8 19:08:53 10° NNW 19:11:22 23° NE 19:12:05 22° ENE
Cosmos 1741 Rocket 4.2 19:07:15 10° S 19:12:12 44° ESE 19:17:09 10° NNE
Resurs 01 Rocket 1.6 19:10:58 10° SSE 19:15:17 57° ENE 19:19:36 10° N
Cosmos 1023 Rocket 4.3 19:10:21 10° SSW 19:15:25 85° ESE 19:20:34 10° NNE
FengYun 1-2 T 4.1 19:10:38 10° SSE 19:16:04 73° ENE 19:21:34 10° N
SL-16 R/B 2.8 19:10:35 10° NNW 19:16:08 59° WSW 19:21:40 10° S
Cosmos 1340 2.5 19:14:06 10° N 19:17:54 86° E 19:21:41 10° S
DNEPR-1 R/B 4.0 19:17:55 10° NW 19:22:02 58° WSW 19:26:20 10° SSE
Cosmos 1238 Rocket 1.9 19:20:35 10° N 19:23:34 90° SSW 19:24:54 30° S
Gbstr 26 Del rocket 2.8 19:21:20 10° SW 19:25:10 69° NW 19:26:34 36° NNE
Hubble Space Telescope 3.1 19:24:00 10° S 19:25:09 12° SSE 19:25:09 12° SSE
Intercosmos 24 4.3 19:22:31 10° SSE 19:26:11 45° E 19:31:02 10° NNE
Tiangong 2 1.2 19:23:45 10° NW 19:26:33 57° N 19:26:33 57° N
Meteor 1-19 Rocket 4.1 19:21:09 10° N 19:26:50 77° E 19:32:36 10° SSE
DELTA 2 R/B (1) 3.7 19:21:44 10° WNW 19:27:19 65° NNE 19:29:25 38° E
Cosmos 1570 Rocket 4.5 19:24:14 10° N 19:29:05 37° ENE 19:29:15 37° ENE
Meteor 1-5 Rocket 4.5 19:23:41 10° SSE 19:29:24 50° E 19:35:06 10° NNE
BREEZE-M DEB (TANK) 2.6 19:24:29 10° NW 19:30:23 85° SW 19:30:58 57° SE
Cosmos 1300 Rocket 4.2 19:27:24 10° SSW 19:31:44 58° W 19:36:06 10° N
Cosmos 1536 2.6 19:28:47 10° S 19:32:46 84° E 19:36:46 10° N
Cosmos 2322 Rocket 3.6 19:28:44 10° NW 19:33:53 38° WSW 19:39:01 10° S
Cosmos 2181 Rocket 4.1 19:28:42 10° N 19:34:57 79° W 19:41:17 10° S
CZ-2D R/B 3.5 19:38:26 53° NNE 19:38:26 53° NNE 19:41:31 10° N
Resurs 1-3 3.5 19:33:25 10° SSE 19:37:48 87° ENE 19:42:12 10° NNW
FENGYUN 3A 4.2 19:39:45 10° S 19:45:02 58° W 19:50:23 10° NNW
Cosmos 1140 Rocket 4.4 19:40:12 10° SW 19:45:08 48° WNW 19:50:07 10° N
Cosmos 1461 4.5 19:43:05 10° NW 19:46:44 33° WSW 19:50:11 12° S
H-2A R/B 3.0 19:45:20 32° S 19:46:52 62° W 19:50:33 10° NNW
Cosmos 2322 3.6 19:41:13 10° NNW 19:46:58 83° ENE 19:49:34 34° SSE
ATLAS CENTAUR R/B 2.9 19:42:06 10° SSW 19:45:58 33° S 19:45:58 33° S
Cosmos 2074 Rocket 3.9 19:43:25 10° S 19:49:39 86° E 19:55:57 10° N
Cosmos 2184 Rocket 3.9 19:44:07 10° S 19:50:27 84° E 19:56:45 10° N
Meteor 1-23 Rocket 4.1 19:47:20 10° N 19:53:09 75° E 19:55:23 39° SSE
Cosmos 2208 Rocket 4.1 19:48:09 10° N 19:53:07 58° NE 19:53:07 58° NE
Spot 2 Rocket 4.0 19:48:56 10° S 19:53:53 58° W 19:58:53 10° NNW
Helios 1A 3.9 19:58:08 41° NNW 19:58:08 41° NNW 20:00:53 10° NNW
COSMOS 2428 3.1 19:54:31 10° NNW 19:59:03 47° NNE 19:59:03 47° NNE
Meteor 2-4 Rocket 3.7 19:55:07 10° NNW 20:00:39 75° W 20:04:57 16° S
Cosmos 2237 4.1 19:54:56 10° NNW 20:00:38 71° ENE 20:00:38 71° ENE
GPS 2-04 Rocket1 4.0 20:02:24 10° WSW 20:05:18 40° SW 20:05:18 40° SW
Cosmos 2237 Rocket 4.4 20:05:07 10° N 20:05:44 12° NNE 20:05:44 12° NNE
Cosmos 2219 3.9 20:14:05 10° SW 20:19:40 53° WNW 20:23:09 23° N
Helios 1B rocket 4.0 20:20:32 34° WNW 20:20:32 34° WNW 20:24:17 10° SW
USA 229 DEB 4.2 20:13:52 10° NNW 20:19:44 48° NNE 20:19:44 48° NNE
USA 229 4.2 20:13:59 10° NNW 20:19:48 48° NNE 20:19:48 48° NNE
Cosmos 2285 Rocket 4.3 20:14:31 10° NNW 20:19:33 54° NNE 20:19:33 54° NNE
Cosmos 2360 Rocket 3.5 20:20:52 10° NW 20:26:01 37° WSW 20:28:56 22° SSW
Cosmos 2219 Rocket 3.9 20:23:55 10° N 20:25:54 22° N 20:25:54 22° N
Cosmos 2333 Rocket 4.3 20:49:42 10° NNW 20:51:04 18° NNW 20:51:04 18° NNW
